Hourly Data Report for March 27, 2003

TORONTO CITY
ONTARIO

43°40'00.000" N
79°24'00.000" W
112.50 m
6158355
71508
XTO

Download Data

Hourly Data (March 2003)
Hourly Data Report for March 27, 2003
TIME
LST
Temp Definition
°C
Dew Point Definition
°C
Rel Hum Definition
%
Precip. Amount Definition
mm

Wind Dir Definition
10's deg

Wind Spd Definition
km/h
Visibility Definition
km
Stn Press Definition
kPa
Hmdx Definition


Wind Chill Definition


Weather Definition


00:00 4.5 -4.8 51   LegendMM LegendMM LegendMM 100.18     LegendNANA
01:00 4.2 -4.4 53   LegendMM LegendMM LegendMM 100.23     LegendNANA
02:00 4.4 -4.2 54   LegendMM LegendMM LegendMM 100.24     LegendNANA
03:00 4.0 -2.5 63   LegendMM LegendMM LegendMM 100.28     LegendNANA
04:00 3.1 -1.0 74   LegendMM LegendMM LegendMM 100.33     LegendNANA
05:00 3.1 -0.8 76   LegendMM LegendMM LegendMM 100.33     LegendNANA
06:00 3.3 -1.5 71   LegendMM LegendMM LegendMM 100.39     LegendNANA
07:00 3.8 -1.1 70   LegendMM LegendMM LegendMM 100.49     LegendNANA
08:00 5.6 -1.9 58   LegendMM LegendMM LegendMM 100.51     LegendNANA
09:00 7.4 0.2 60   LegendMM LegendMM LegendMM 100.61     LegendNANA
10:00 7.7 -3.3 46   LegendMM LegendMM LegendMM 100.61     LegendNANA
11:00 8.4 -3.5 43   LegendMM LegendMM LegendMM 100.59     LegendNANA
12:00 7.6 -2.5 49   LegendMM LegendMM LegendMM 100.64     LegendNANA
13:00 7.9 -2.5 48   LegendMM LegendMM LegendMM 100.62     LegendNANA
14:00 7.6 -2.2 50   LegendMM LegendMM LegendMM 100.59     LegendNANA
15:00 8.3 -1.1 52   LegendMM LegendMM LegendMM 100.57     LegendNANA
16:00 8.7 -0.4 53   LegendMM LegendMM LegendMM 100.52     LegendNANA
17:00 7.9 -0.9 54   LegendMM LegendMM LegendMM 100.52     LegendNANA
18:00 7.6 -0.9 55   LegendMM LegendMM LegendMM 100.53     LegendNANA
19:00 5.4 -1.4 62   LegendMM LegendMM LegendMM 100.59     LegendNANA
20:00 6.2 -0.6 62   LegendMM LegendMM LegendMM 100.62     LegendNANA
21:00 5.2 -1.1 64   LegendMM LegendMM LegendMM 100.62     LegendNANA
22:00 6.0 -1.0 61   LegendMM LegendMM LegendMM 100.59     LegendNANA
23:00 5.9 -1.1 61   LegendMM LegendMM LegendMM 100.52     LegendNANA

Notes on Data Quality.

Legend

  • E = Estimated
  • M = Missing
  • NA = Not Available*
  • [empty] = Indicates an unobserved value
Date modified: